Coatesville, PA

2:03 PM EDT on March 27, 2017 (GMT -0400)
Chester County Carlson

Weather History for KMQS - April, 2014

Change the Weather History Date:

Tuesday, April 29, 2014

  Actual Average (KILG) Record (KILG)
Temperature  
Mean Temperature 44 °F -  
Max Temperature 48 °F 67 °F 91 °F (1974)
Min Temperature 41 °F 45 °F 31 °F (1922)
Degree Days  
Heating Degree Days 20    
Moisture  
Dew Point 43 °F    
Average Humidity 94    
Maximum Humidity 100    
Minimum Humidity 76    
Precipitation  
Precipitation 0.35 in - - ()
Sea Level Pressure  
Sea Level Pressure 30.20 in    
Wind  
Wind Speed 12 mph (ESE)    
Max Wind Speed 28 mph    
Max Gust Speed 39 mph    
Visibility 7 miles    
Events Rain    
Averages and records for this station are not official NWS values.
T = Trace of Precipitation, MM = Missing Value Source: NWS Daily Summary

Daily Weather History Graph

Daily Weather History Graph

Search for Another Location

Airport or City:

Trip Planner

Search our weather history database for the weather conditions in past years. The results will help you decide how hot, cold, wet, or windy it might be!

Date:

Astronomy

Apr. 29, 2014 Rise Set
Actual Time 6:06 AM EDT 7:56 PM EDT
Civil Twilight 5:37 AM EDT 8:25 PM EDT
Nautical Twilight 5:01 AM EDT 9:00 PM EDT
Astronomical Twilight 4:23 AM EDT 9:39 PM EDT
Moon 6:22 AM EDT (4/29) 8:33 PM EDT (4/29)
Length of Visible Light 14h 48m
Length of Day
13h 50m
New Moon, 0% of the Moon is Illuminated
Apr 29
New Moon
May 6
First Quarter
May 14
Full
May 21
Last Quarter
May 28
New

Hourly Weather History & Observations

Time (EDT) Temp. Windchill Dew Point Humidity Pressure Visibility Wind Dir Wind Speed Gust Speed Precip Events Conditions
12:15 AM 48.2 °F - 48.2 °F 100% 30.10 in 5.0 mi South 3.5 mph - N/A Rain Light Rain
12:35 AM 48.2 °F - 48.2 °F 100% 30.09 in 5.0 mi SE 3.5 mph - N/A   Overcast
12:55 AM 48.2 °F - 48.2 °F 100% 30.09 in 5.0 mi SE 4.6 mph - N/A   Overcast
1:15 AM 48.2 °F - 48.2 °F 100% 30.11 in 4.0 mi SSE 3.5 mph - N/A   Overcast
1:35 AM 48.2 °F - 48.2 °F 100% 30.11 in 3.0 mi SSE 4.6 mph - N/A   Overcast
1:55 AM 48.2 °F - 48.2 °F 100% 30.11 in 4.0 mi SE 3.5 mph - N/A   Overcast
2:15 AM 48.2 °F - 48.2 °F 100% 30.11 in 2.5 mi SE 3.5 mph - N/A   Overcast
2:35 AM 48.2 °F - 48.2 °F 100% 30.11 in 1.8 mi SSE 4.6 mph - N/A   Overcast
2:55 AM 46.4 °F 43.5 °F 46.4 °F 100% 30.10 in 2.0 mi SE 5.8 mph - N/A   Overcast
3:15 AM 46.4 °F 43.5 °F 46.4 °F 100% 30.11 in 4.0 mi SE 5.8 mph - N/A   Overcast
3:35 AM 46.4 °F 43.5 °F 46.4 °F 100% 30.13 in 7.0 mi ESE 5.8 mph - N/A   Overcast
3:55 AM 46.4 °F 41.1 °F 46.4 °F 100% 30.12 in 8.0 mi East 11.5 mph - N/A   Mostly Cloudy
4:15 AM 46.4 °F 41.5 °F 46.4 °F 100% 30.14 in 10.0 mi ESE 10.4 mph - N/A   Mostly Cloudy
4:35 AM 46.4 °F 41.5 °F 46.4 °F 100% 30.14 in 10.0 mi ESE 10.4 mph - N/A   Overcast
4:55 AM 46.4 °F 42.4 °F 46.4 °F 100% 30.15 in 10.0 mi ESE 8.1 mph - N/A   Overcast
5:15 AM 46.4 °F 40.4 °F 44.6 °F 93% 30.16 in 10.0 mi ESE 13.8 mph 18.4 mph N/A   Overcast
5:35 AM 46.4 °F 41.5 °F 41.0 °F 81% 30.16 in 10.0 mi ESE 10.4 mph - N/A   Overcast
5:55 AM 46.4 °F 40.4 °F 41.0 °F 81% 30.16 in 10.0 mi ESE 13.8 mph 19.6 mph N/A   Mostly Cloudy
6:15 AM 46.4 °F 41.1 °F 41.0 °F 81% 30.17 in 10.0 mi ESE 11.5 mph 20.7 mph N/A   Overcast
6:35 AM 46.4 °F 40.4 °F 41.0 °F 81% 30.16 in 10.0 mi ESE 13.8 mph 19.6 mph N/A   Overcast
6:55 AM 46.4 °F 38.7 °F 41.0 °F 81% 30.16 in 10.0 mi ESE 20.7 mph 26.5 mph N/A   Overcast
7:15 AM 46.4 °F 39.5 °F 41.0 °F 81% 30.17 in 10.0 mi East 17.3 mph 24.2 mph N/A   Overcast
7:35 AM 46.4 °F 39.0 °F 41.0 °F 81% 30.19 in 10.0 mi East 19.6 mph 25.3 mph N/A   Overcast
7:55 AM 46.4 °F 39.8 °F 41.0 °F 81% 30.20 in 10.0 mi East 16.1 mph 26.5 mph N/A   Overcast
8:15 AM 46.4 °F 39.5 °F 41.0 °F 81% 30.21 in 10.0 mi East 17.3 mph 23.0 mph N/A   Overcast
8:35 AM 46.4 °F 40.4 °F 41.0 °F 81% 30.21 in 10.0 mi East 13.8 mph 24.2 mph N/A   Overcast
8:55 AM 46.4 °F 38.3 °F 41.0 °F 81% 30.20 in 10.0 mi ESE 23.0 mph 28.8 mph N/A   Overcast
9:15 AM 46.4 °F 40.1 °F 41.0 °F 81% 30.22 in 10.0 mi ESE 15.0 mph 36.8 mph N/A   Overcast
9:35 AM 46.4 °F 39.2 °F 41.0 °F 81% 30.23 in 10.0 mi ESE 18.4 mph 25.3 mph N/A   Overcast
9:55 AM 46.4 °F 38.5 °F 39.2 °F 76% 30.23 in 10.0 mi East 21.9 mph 31.1 mph N/A   Overcast
10:15 AM 46.4 °F 39.0 °F 39.2 °F 76% 30.23 in 10.0 mi ESE 19.6 mph 31.1 mph N/A   Overcast
10:35 AM 46.4 °F 38.5 °F 39.2 °F 76% 30.24 in 10.0 mi East 21.9 mph 32.2 mph N/A   Overcast
10:55 AM 44.6 °F 36.6 °F 41.0 °F 87% 30.25 in 10.0 mi ESE 19.6 mph 28.8 mph N/A Rain Light Rain
11:15 AM 44.6 °F 36.4 °F 41.0 °F 87% 30.26 in 6.0 mi East 20.7 mph 29.9 mph N/A Rain Light Rain
11:35 AM 44.6 °F 38.1 °F 42.8 °F 93% 30.26 in 5.0 mi East 13.8 mph 28.8 mph N/A Rain Light Rain
11:55 AM 44.6 °F 37.2 °F 44.6 °F 100% 30.26 in 5.0 mi East 17.3 mph 24.2 mph 0.01 in Rain Light Rain
12:15 PM 44.6 °F 37.4 °F 44.6 °F 100% 30.25 in 4.0 mi East 16.1 mph 32.2 mph N/A Rain Light Rain
12:35 PM 44.6 °F 38.8 °F 44.6 °F 100% 30.26 in 6.0 mi East 11.5 mph 20.7 mph 0.01 in Rain Light Rain
12:55 PM 44.6 °F 36.4 °F 44.6 °F 100% 30.24 in 7.0 mi East 20.7 mph 32.2 mph 0.01 in Rain Light Rain
1:15 PM 44.6 °F 35.9 °F 44.6 °F 100% 30.22 in 10.0 mi East 23.0 mph 33.4 mph 0.01 in   Overcast
1:35 PM 44.6 °F 35.9 °F 44.6 °F 100% 30.22 in 10.0 mi East 23.0 mph 38.0 mph 0.01 in   Overcast
1:55 PM 44.6 °F 36.4 °F 42.8 °F 93% 30.23 in 10.0 mi East 20.7 mph 27.6 mph 0.01 in   Overcast
2:15 PM 44.6 °F 35.1 °F 42.8 °F 93% 30.21 in 10.0 mi East 27.6 mph 39.1 mph N/A   Overcast
2:35 PM 44.6 °F 35.9 °F 44.6 °F 100% 30.21 in 10.0 mi ESE 23.0 mph 35.7 mph N/A   Overcast
2:55 PM 44.6 °F 36.6 °F 42.8 °F 93% 30.23 in 10.0 mi East 19.6 mph 33.4 mph N/A   Overcast
3:15 PM 44.6 °F 35.7 °F 42.8 °F 93% 30.21 in 7.0 mi ESE 24.2 mph 28.8 mph N/A Rain Light Rain
3:35 PM 44.6 °F 36.9 °F 42.8 °F 93% 30.22 in 7.0 mi East 18.4 mph 25.3 mph N/A Rain Light Rain
3:55 PM 44.6 °F 36.6 °F 44.6 °F 100% 30.22 in 7.0 mi East 19.6 mph 24.2 mph N/A   Overcast
4:15 PM 44.6 °F 36.6 °F 44.6 °F 100% 30.24 in 10.0 mi East 19.6 mph 28.8 mph N/A   Overcast
4:35 PM 44.6 °F 36.6 °F 44.6 °F 100% 30.23 in 6.0 mi East 19.6 mph 26.5 mph 0.01 in Rain Light Rain
4:55 PM 44.6 °F 36.1 °F 44.6 °F 100% 30.23 in 5.0 mi East 21.9 mph 27.6 mph 0.01 in Rain Light Rain
5:15 PM 44.6 °F 38.4 °F 44.6 °F 100% 30.22 in 5.0 mi East 12.7 mph 28.8 mph N/A Rain Light Rain
5:35 PM 44.6 °F 37.4 °F 44.6 °F 100% 30.23 in 4.0 mi ESE 16.1 mph 28.8 mph 0.01 in Rain Light Rain
5:55 PM 44.6 °F 37.4 °F 44.6 °F 100% 30.23 in 3.0 mi East 16.1 mph 21.9 mph 0.02 in Rain Light Rain
6:35 PM 42.8 °F 34.0 °F 42.8 °F 100% 30.25 in 3.0 mi East 20.7 mph 28.8 mph 0.05 in Rain Light Rain
6:55 PM 42.8 °F 34.5 °F 42.8 °F 100% 30.25 in 3.0 mi East 18.4 mph 26.5 mph 0.07 in Rain Light Rain
7:15 PM 42.8 °F 34.3 °F 42.8 °F 100% 30.24 in 6.0 mi East 19.6 mph 38.0 mph 0.01 in Rain Light Rain
7:35 PM 42.8 °F 34.5 °F 42.8 °F 100% 30.24 in 4.0 mi East 18.4 mph 31.1 mph 0.03 in Rain Light Rain
7:55 PM 41.0 °F 32.5 °F 41.0 °F 100% 30.27 in 5.0 mi ESE 17.3 mph 25.3 mph 0.04 in Rain Light Rain
8:15 PM 41.0 °F 32.8 °F 41.0 °F 100% 30.28 in 10.0 mi East 16.1 mph 21.9 mph N/A   Overcast
8:35 PM 41.0 °F 31.9 °F 41.0 °F 100% 30.27 in 5.0 mi East 19.6 mph 26.5 mph N/A Rain Light Rain
8:55 PM 41.0 °F 32.8 °F 41.0 °F 100% 30.28 in 5.0 mi East 16.1 mph 24.2 mph 0.01 in   Overcast
9:15 PM 41.0 °F 33.1 °F 41.0 °F 100% 30.28 in 3.0 mi East 15.0 mph 25.3 mph N/A Rain Light Rain
9:35 PM 41.0 °F 32.5 °F 41.0 °F 100% 30.28 in 3.0 mi East 17.3 mph 33.4 mph N/A   Overcast
10:15 PM 41.0 °F 33.1 °F 41.0 °F 100% 30.27 in 3.0 mi East 15.0 mph 27.6 mph N/A   Overcast
10:35 PM 41.0 °F 32.5 °F 41.0 °F 100% 30.26 in 3.0 mi East 17.3 mph 27.6 mph 0.01 in Rain Light Rain
10:55 PM 41.0 °F 31.6 °F 41.0 °F 100% 30.25 in 2.0 mi East 20.7 mph 28.8 mph 0.03 in Rain Light Rain
11:15 PM 41.0 °F 32.2 °F 41.0 °F 100% 30.27 in 3.0 mi East 18.4 mph 24.2 mph 0.02 in Rain Light Rain
11:35 PM 41.0 °F 33.5 °F 41.0 °F 100% 30.26 in 3.0 mi East 13.8 mph 23.0 mph 0.11 in Rain Rain
11:55 PM 41.0 °F 31.9 °F 41.0 °F 100% 30.25 in 5.0 mi East 19.6 mph 31.1 mph 0.14 in Rain Light Rain